Voltar ao catálogo

CZ-4C DEB

AtivoSSO
NORAD 43263·DEBRIS·🇨🇳 China

Lançado Mar 31, 2018 de Taiyuan Satellite Launch Center

Loading…

Próximas Passagens (próximas 24 horas)

TLE

AtualizadoSource: Space-Track

Época: Sep 13, 2026, 22:41 UTC

1 43263U 18031E   26256.94514389  .00001863  00000-0  24384-3 0  9997
2 43263  97.6970 257.2215 0039364  51.4781 308.9951 14.81019277454506

Acompanhe CZ-4C DEB em tempo real com AllMySat

Download on the App Store